GEO-KOMPSAT-2A

Last updated on Mon Oct 14 2024 00:02:17 GMT+0000 (Coordinated Universal Time)

1 43823U 18100A 24287.50342446 -.00000345 00000+0 00000+0 0 9992 2 43823 0.0548 46.5998 0001301 87.6099 197.8702 1.00270958 21520
UTC large
Height (km)
Speed (km/s)
/
Latitude / Longitude
Inclination (degrees)
Orbital Period (minutes)
Azimuth
Elevation
Range (km)
Doppler Factor

Next 0 passes for location: London (51.5072 / 0.1276)

Sorry there are no passes over London.